Dewpoint
47 46 46 47 47 47 47 48 47 47 47 46 46 47 48 50 53 53 54 55 57 57
46 46 46 47 47 46 45 44 43 44 44 44 44 45 46 47 50 52 53 54 55 55
44 44 44 44 44 44 43 42 42 42 42 42 42 43 44 46 48 49 50 50 50 49
42 42 42 42 42 42 41 41 41 41 41 40 40 41 41 43 43 45 47 46 46 44
42 41 41 40 40 40 40 40 39 39 39 39 40 40 40 41 42 42 43 43 43 42
40 40 40 39 39 39 39 39 39 39 39 38 38 39 40 40 40 40 40 40 40 39
39 39 39 39 39 39 38 38 38 38 38 38 37 38 38 39 39 39 39 39 38 38
39 39 39 38 38 39 38 38 38 37 37 37 37 37 38 38 38 38 37 36 38 39
38 38 38 38 38 38 38 38 37 37 37 37 36 38 38 37 37 36 35 34 33 33
38 38 38 38 38 38 38 38 37 37 36 36 37 38 37 36 36 35 34 33 33 30
38 38 38 37 37 37 37 37 37 37 36 36 36 36 34 33 32 30 30 30 30 29
38 38 37 36 36 37 36 36 35 35 35 35 33 32 29 27 26 27 26 23 22 25
38 37 36 36 36 35 35 34 32 33 33 32 30 29 26 25 19 18 15 15 24 27
37 37 37 37 36 34 33 31 31 32 31 29 29 27 27 24 13 12 13 14 16 21
Wind_Speed
4 3 2 1 2 3 3 1 1 3 3 4 6 7 8 8 9 9 11 11 10 11
3 2 1 1 1 2 2 2 3 3 4 5 5 6 7 8 8 7 7 5 6 4
4 3 2 0 1 2 3 4 5 5 5 5 5 5 6 6 6 7 5 2 2 2
5 4 3 2 1 2 3 4 6 6 6 6 5 5 6 4 5 5 3 2 2 3
4 3 3 3 2 3 4 3 4 5 5 5 5 5 5 4 3 3 2 0 1 3
4 4 3 3 3 4 5 4 3 5 5 5 4 4 3 3 2 2 3 4 4 4
6 5 4 3 3 3 3 4 3 2 2 4 4 3 2 1 1 3 5 6 6 7
7 6 4 3 4 4 2 2 2 3 2 2 3 2 2 3 4 6 7 9 9 9
7 6 6 5 5 5 4 2 2 2 1 0 1 3 3 5 7 7 8 8 7 7
8 8 7 7 6 6 5 4 4 3 3 3 3 5 5 7 7 8 8 6 4 5
9 9 7 8 8 7 6 6 5 6 5 5 3 5 7 9 8 8 7 5 3 3
9 9 9 9 9 7 6 6 6 5 5 6 5 6 6 7 6 6 4 2 1 1
9 10 11 10 9 7 7 8 6 5 5 5 5 6 5 3 3 4 4 3 3 1
9 9 9 9 8 9 9 8 6 6 6 6 7 7 6 5 2 2 3 4 4 4
Wind_Direction
165 185 186 200 246 247 267 272 357 299 299 306 311 309 301 292 282 281 275 277 265 260
153 155 148 38 336 310 312 318 303 301 302 301 301 305 307 295 297 307 305 314 334 319
131 115 99 60 294 316 309 304 302 293 288 290 294 299 300 300 303 292 280 335 41 43
163 162 173 208 245 277 297 300 300 299 297 295 302 303 298 291 306 289 282 337 75 85
171 187 216 238 259 277 275 275 293 295 290 294 298 305 310 305 309 309 289 356 150 106
194 223 236 252 274 280 281 264 263 279 280 287 295 299 304 311 335 4 38 50 59 53
201 214 222 211 242 264 282 273 260 251 281 308 312 311 300 317 75 75 68 64 62 61
192 201 197 203 224 223 240 266 281 278 277 292 278 284 243 151 128 111 93 72 65 65
196 204 209 214 224 216 210 203 229 223 214 252 268 162 143 130 114 108 101 91 71 68
210 209 202 213 219 226 211 195 199 175 178 131 111 117 115 115 106 113 102 98 91 71
213 213 205 215 214 212 196 196 187 176 172 144 126 118 124 114 109 102 99 101 99 118
213 215 205 211 210 194 184 174 175 163 133 137 161 156 142 117 124 115 126 147 89 75
207 215 211 212 191 181 185 181 171 154 151 176 169 178 163 163 156 178 155 174 156 137
206 207 201 192 176 171 166 163 170 175 182 196 208 192 202 206 252 227 195 209 191 171